(332127) = 2005 WO33

Discovered at Kitt Peak on 2005-11-21 by Spacewatch.

Orbit

Orbit type: Main Belt

Note: WebGL enabled browser required.

epoch2024-03-31.0
epoch JD2460400.5
perihelion date2022-11-16.18120
perihelion JD2459899.68120
argument of perihelion (°)145.43853
ascending node (°)258.54973
inclination (°)12.53738
eccentricity0.1403020
perihelion distance (AU)2.2781366
Tisserand w.r.t. Jupiter3.3
ΔV w.r.t. Earth (km/sec)10.2
semimajor axis (AU)2.6499264
mean anomaly (°)114.42838
mean daily motion (°/day)0.22848260
aphelion distance (AU)3.022
period (years)4.31
P-vector [x]0.70622405
P-vector [y]0.59068078
P-vector [z]0.39031245
Q-vector [x]-0.67526471
Q-vector [y]0.72764448
Q-vector [z]0.12062788
absolute magnitude16.15
phase slope0.15
uncertainty0
referenceMPEC 2024-E23
observations used504
oppositions13
arc length (days)8059
first opposition used2002
last opposition used2024
residual rms (arc-secs)0.71
perturbers coarse indicatorM-v
perturbers precise indicator003Ek
first observation date used2002-02-07.0
last observation date used2024-03-02.0
computer nameMPCLINUX
JD of orbit computation2456612.659741
perihelion JD uncertainty (days)2.4122E-04
argument of perihelion uncertainty (°)4.5820E-05
ascending node uncertainty (°)2.6746E-05
inclination uncertainty (°)6.9317E-06
eccentricity uncertainty 2.9812E-07
perihelion distance uncertainty (AU)8.9303E-07
Minimum Orbit Intersection Distances (in AU)
for orbit epoch: 2460400.5, reference: E2024-GF4
Mercury1.96362
Venus1.56601
Earth1.30009
Mars0.78397
Jupiter2.35849
Saturn6.62122
Uranus15.6443
Neptune27.5689

Observations

514 total observations over interval: 2002 02 07.11027 – 2024 03 02.448453
These data are available for download (format description).

Date (UT) J2000 RA J2000 Dec Magn Location Ref
2002 02 07.11027 07 46 36.73 +06 22 45.0 20.1   644 – Palomar Mountain/NEAT MPS 445892
2002 02 07.13283 07 46 35.64 +06 22 47.4 20.2   644 – Palomar Mountain/NEAT MPS 445892
2002 02 07.15834 07 46 34.38 +06 22 49.8 19.7   644 – Palomar Mountain/NEAT MPS 445892
2005 11 21.35137 05 36 43.38 +25 07 47.7 19.6 V 691 – Steward Observatory, Kitt Peak-Spacewatch MPS 152389
2005 11 21.36871 05 36 42.52 +25 07 40.9 19.5 V 691 – Steward Observatory, Kitt Peak-Spacewatch MPS 152389
2005 11 21.38604 05 36 41.66 +25 07 34.1 20.0 V 691 – Steward Observatory, Kitt Peak-Spacewatch MPS 152389
2005 11 25.35719 05 33 21.49 +24 40 55.3   691 – Steward Observatory, Kitt Peak-Spacewatch MPS 152389
2005 11 25.37452 05 33 20.54 +24 40 47.9   691 – Steward Observatory, Kitt Peak-Spacewatch MPS 152389
2005 11 25.39184 05 33 19.56 +24 40 40.8   691 – Steward Observatory, Kitt Peak-Spacewatch MPS 152389
2005 11 26.38683 05 32 25.98 +24 33 47.5 18.4 V G96 – Mt. Lemmon Survey MPS 155437
2005 11 26.39395 05 32 25.58 +24 33 44.4 18.5 V G96 – Mt. Lemmon Survey MPS 155437
2005 11 26.40132 05 32 25.15 +24 33 41.4 18.4 V G96 – Mt. Lemmon Survey MPS 155437
2005 11 26.40877 05 32 24.75 +24 33 38.3 18.4 V G96 – Mt. Lemmon Survey MPS 155437
2005 11 28.30242 05 30 39.74 +24 20 17.7 19.7   704 – Lincoln Laboratory ETS, New Mexico MPS 152389
2005 11 28.32909 05 30 38.14 +24 20 05.6 20.0   704 – Lincoln Laboratory ETS, New Mexico MPS 152389
2005 11 28.34224 05 30 37.35 +24 20 01.8 20.0   704 – Lincoln Laboratory ETS, New Mexico MPS 152389
2005 11 28.35594 05 30 36.61 +24 19 57.5 20.2   704 – Lincoln Laboratory ETS, New Mexico MPS 152389
2005 11 29.20991 05 29 48.07 +24 13 48.9 19.4 V 691 – Steward Observatory, Kitt Peak-Spacewatch MPS 152389
2005 11 29.22722 05 29 47.06 +24 13 41.4 19.4 V 691 – Steward Observatory, Kitt Peak-Spacewatch MPS 152389
2005 11 29.24455 05 29 46.01 +24 13 34.2 19.3 V 691 – Steward Observatory, Kitt Peak-Spacewatch MPS 152389
2005 11 29.32286 05 29 41.22 +24 13 00.2 19.5   704 – Lincoln Laboratory ETS, New Mexico MPS 152389
2005 11 29.33177 05 29 40.74 +24 12 56.8 19.6   704 – Lincoln Laboratory ETS, New Mexico MPS 152389
2005 11 29.33573 05 29 40.45 +24 12 55.3 19.6   704 – Lincoln Laboratory ETS, New Mexico MPS 152389
2005 11 29.34492 05 29 40.01 +24 12 51.2 19.7   704 – Lincoln Laboratory ETS, New Mexico MPS 152389
2005 11 29.34937 05 29 39.69 +24 12 49.3 19.6   704 – Lincoln Laboratory ETS, New Mexico MPS 152389
2005 11 29.35847 05 29 39.22 +24 12 45.0 20.1   704 – Lincoln Laboratory ETS, New Mexico MPS 152389
2005 11 29.37145 05 29 38.50 +24 12 38.6 20.1   704 – Lincoln Laboratory ETS, New Mexico MPS 152389
2005 11 29.37545 05 29 38.13 +24 12 37.2 19.5   704 – Lincoln Laboratory ETS, New Mexico MPS 152389
2005 11 30.31455 05 28 43.59 +24 05 50.8 19.6   704 – Lincoln Laboratory ETS, New Mexico MPS 152389
2005 11 30.32734 05 28 42.82 +24 05 45.1 19.9   704 – Lincoln Laboratory ETS, New Mexico MPS 152389
2005 11 30.35301 05 28 41.20 +24 05 33.7 20.2   704 – Lincoln Laboratory ETS, New Mexico MPS 152389
2005 12 01.32285 05 27 44.00 +23 58 30.1 19.0   704 – Lincoln Laboratory ETS, New Mexico MPS 153912
2005 12 01.34842 05 27 42.39 +23 58 18.8 19.5   704 – Lincoln Laboratory ETS, New Mexico MPS 153912
2005 12 01.36115 05 27 41.64 +23 58 13.8 19.6   704 – Lincoln Laboratory ETS, New Mexico MPS 153912
2005 12 01.37382 05 27 40.90 +23 58 07.5 19.3   704 – Lincoln Laboratory ETS, New Mexico MPS 153912
2005 12 04.26569 05 24 46.12 +23 36 42.0 19.1   704 – Lincoln Laboratory ETS, New Mexico MPS 153912
2005 12 04.27883 05 24 45.30 +23 36 36.7 19.0   704 – Lincoln Laboratory ETS, New Mexico MPS 153912
2005 12 04.30500 05 24 43.67 +23 36 24.5 19.9   704 – Lincoln Laboratory ETS, New Mexico MPS 153912
2005 12 04.31795 05 24 42.84 +23 36 18.9 19.4   704 – Lincoln Laboratory ETS, New Mexico MPS 153912
2005 12 06.31771 05 22 39.15 +23 21 14.3 19.0   704 – Lincoln Laboratory ETS, New Mexico MPS 153912
2005 12 06.33080 05 22 38.28 +23 21 09.7 19.6   704 – Lincoln Laboratory ETS, New Mexico MPS 153912
2005 12 06.34359 05 22 37.37 +23 21 03.3 19.5   704 – Lincoln Laboratory ETS, New Mexico MPS 153913
2005 12 06.35657 05 22 36.77 +23 20 57.6 20.4   704 – Lincoln Laboratory ETS, New Mexico MPS 153913
2005 12 06.36931 05 22 35.79 +23 20 50.8 19.4   704 – Lincoln Laboratory ETS, New Mexico MPS 153913
2005 12 10.26650 05 18 31.86 +22 51 02.3 19.2   704 – Lincoln Laboratory ETS, New Mexico MPS 155437
2005 12 10.27960 05 18 31.12 +22 50 57.3 19.5   704 – Lincoln Laboratory ETS, New Mexico MPS 155437
2005 12 10.29268 05 18 30.20 +22 50 51.3 19.1   704 – Lincoln Laboratory ETS, New Mexico MPS 155437
2005 12 10.30547 05 18 29.32 +22 50 44.9 19.3   704 – Lincoln Laboratory ETS, New Mexico MPS 155437
2005 12 10.31829 05 18 28.56 +22 50 39.2 18.8   704 – Lincoln Laboratory ETS, New Mexico MPS 155437
2005 12 26.28354 05 02 54.09 +20 49 34.7 18.8 V G96 – Mt. Lemmon Survey MPS 156634
2005 12 26.28951 05 02 53.80 +20 49 32.2 18.8 V G96 – Mt. Lemmon Survey MPS 156634
2005 12 26.29549 05 02 53.48 +20 49 29.4 18.8 V G96 – Mt. Lemmon Survey MPS 156634
2005 12 26.30161 05 02 53.16 +20 49 26.9 18.9 V G96 – Mt. Lemmon Survey MPS 156634
2005 12 31.22236 04 59 00.16 +20 15 05.0 19.7   704 – Lincoln Laboratory ETS, New Mexico MPS 157827
2005 12 31.23535 04 58 59.49 +20 14 58.7 19.9   704 – Lincoln Laboratory ETS, New Mexico MPS 157827
2005 12 31.26215 04 58 58.22 +20 14 48.6 19.4   704 – Lincoln Laboratory ETS, New Mexico MPS 157827
2006 01 31.14800 04 51 17.92 +17 47 05.7 19.6 V G96 – Mt. Lemmon Survey MPS 161838
2006 01 31.15529 04 51 18.03 +17 47 04.3 19.5 V G96 – Mt. Lemmon Survey MPS 161838
2006 01 31.16259 04 51 18.10 +17 47 03.1 19.5 V G96 – Mt. Lemmon Survey MPS 161838
2006 01 31.16990 04 51 18.21 +17 47 02.2 19.7 V G96 – Mt. Lemmon Survey MPS 161838
2009 10 26.23388 01 30 03.16 +26 54 30.0 18.5 V 703 – Catalina Sky Survey MPS 308651
2009 10 26.24251 01 30 02.80 +26 54 24.6 18.8 V 703 – Catalina Sky Survey MPS 308651
2009 10 26.25106 01 30 02.37 +26 54 19.8 19.4 V 703 – Catalina Sky Survey MPS 308651
2009 10 26.25978 01 30 01.83 +26 54 12.8 18.7 V 703 – Catalina Sky Survey MPS 308651
2009 11 19.20752 01 16 00.87 +22 29 36.9 18.9 V 703 – Catalina Sky Survey MPS 308651
2009 11 19.21358 01 16 00.84 +22 29 33.1 19.7 V 703 – Catalina Sky Survey MPS 308651
2009 11 19.21961 01 16 00.66 +22 29 28.8 19.3 V 703 – Catalina Sky Survey MPS 308651
2009 11 19.22571 01 16 00.55 +22 29 24.6 19.1 V 703 – Catalina Sky Survey MPS 308651
2009 12 11.18734 01 17 24.14 +19 06 30.6 20.8 V 703 – Catalina Sky Survey MPS 308651
2009 12 11.19466 01 17 24.25 +19 06 26.3 19.8 V 703 – Catalina Sky Survey MPS 308651
2009 12 11.20200 01 17 24.43 +19 06 22.8 20.3 V 703 – Catalina Sky Survey MPS 308651
2009 12 11.20935 01 17 24.57 +19 06 19.7 19.7 V 703 – Catalina Sky Survey MPS 308651
2010 01 17.113628 01 48 45.838 +17 04 06.24   C51 – WISE MPS 927055
2010 01 17.378366 01 49 05.064 +17 04 04.40   C51 – WISE MPS 927055
2010 01 17.576887 01 49 19.699 +17 04 04.84   C51 – WISE MPS 927055
2010 01 17.709191 01 49 29.426 +17 04 03.04   C51 – WISE MPS 927055
2010 01 17.775407 01 49 34.452 +17 04 05.48   C51 – WISE MPS 927055
2010 01 17.973928 01 49 49.075 +17 04 07.64   C51 – WISE MPS 927055
2011 02 25.31204 10 27 56.70 -10 58 08.9 19.6 V 703 – Catalina Sky Survey MPS 372007
2011 02 25.32812 10 27 55.76 -10 58 06.0 19.6 V 703 – Catalina Sky Survey MPS 372007
2011 02 25.33623 10 27 55.29 -10 58 01.6 19.7 V 703 – Catalina Sky Survey MPS 372007
2012 05 12.45827 16 15 55.488 -26 53 22.28 20.1 r F51 – Pan-STARRS 1, Haleakala MPS 423940
2012 05 12.46803 16 15 54.971 -26 53 19.55 20.4 r F51 – Pan-STARRS 1, Haleakala MPS 423940
2012 05 12.47912 16 15 54.351 -26 53 16.41 20.1 i F51 – Pan-STARRS 1, Haleakala MPS 423940
2012 05 12.49004 16 15 53.741 -26 53 13.30 20.1 i F51 – Pan-STARRS 1, Haleakala MPS 423941
2012 06 12.34640 15 48 01.230 -23 50 50.04 20.2 w F51 – Pan-STARRS 1, Haleakala MPS 426489
2012 06 12.36039 15 48 00.555 -23 50 44.62 20.3 w F51 – Pan-STARRS 1, Haleakala MPS 426489
2012 06 12.37438 15 47 59.887 -23 50 39.43 20.5 w F51 – Pan-STARRS 1, Haleakala MPS 426489
